Вернуться в каталог

STARLINK-4267

АктивенСвязьVLEO
NORAD 52864·PAYLOAD·🇺🇸 United States

Запущен Jun 17, 2022 с Cape Canaveral Space Force Station

Loading…

Ближайшие Пролёты (ближайшие 24 часа)

TLE

СвежийSource: CelesTrak SupGP

Эпоха: Sep 15, 2026, 01:50 UTC

1 52864C 22062AL  26258.07687500 -.00020598  00000+0 -60858-3 0  2586
2 52864  53.1586 242.7191 0001264  89.2391  86.0162 15.34400656    14

Отслеживайте STARLINK-4267 в реальном времени с AllMySat

Download on the App Store